Home > Weather > Pasadena > Past weeks

Flag for USA Weather for the Past 2 Weeks in Pasadena, Texas, USA

Now
66 °F

Clear.


Feels Like: 66 °F
Forecast: 62 / 85 °F
Wind: 5 mph from West

Location: Houston / Ellington

Current Time: May 5, 2016 at 5:27:28 AM

Latest Report: May 5, 2016 at 3:50 AM


Visibility: 10 mi

Pressure: 29.99 "Hg

Humidity: 68%

Dew Point: 55 °F

Location of PasadenaLocation

Historic Weather in Pasadena — Graph

°F

Pasadena Temperature Yesterday

Maximum temperature yesterday: 82 °F (at 3:50 PM)
Minimum temperature yesterday: 61 °F (at 3:50 AM)
Average temperature yesterday: 72 °F

High & Low Weather Summary for the Past Weeks

 TemperatureHumidityPressure
High86 °F (Apr 29, 10:50 AM)100% (Apr 21, 2:50 AM)30.12 "Hg (Apr 21, 2:50 AM)
Low61 °F (Apr 21, 11:50 AM)32% (Apr 23, 11:50 AM)29.62 "Hg (Apr 30, 2:50 AM)
Average73 °F76%29.90 "Hg
* Reported Apr 20 3:50 AM — May 5 3:50 AM, Pasadena, Weather by CustomWeather, © 2016

Note: Actual official high and low records may vary slightly from our data, if they occured in-between our weather recording intervals... More about our weather records

Advertising

Pasadena Weather History for the Previous 24 Hours

Scroll right to see more
 ConditionsComfort  
Time TempWeatherWind HumidityBarometerVisibility
3:50 AM
Thu, May 5
66 °FClear.5 mph68%29.99 "Hg10 mi
2:50 AM66 °FClear.6 mph64%29.99 "Hg10 mi
1:50 AM68 °FClear.3 mph60%29.99 "Hg10 mi
12:50 AM68 °FClear.No wind60%29.99 "Hg10 mi
11:50 PM
Wed, May 4
70 °FClear.No wind57%29.98 "Hg10 mi
10:50 PM72 °FClear.No wind57%29.98 "Hg10 mi
8:50 PM77 °FSunny.No wind42%29.96 "Hg10 mi
7:50 PM81 °FSunny.7 mph34%29.96 "Hg10 mi
6:50 PM82 °FSunny.9 mph32%29.96 "Hg10 mi
5:50 PM82 °FSunny.12 mph32%29.96 "Hg10 mi
4:50 PM82 °FSunny.14 mph32%29.97 "Hg10 mi
3:50 PM82 °FPassing clouds.9 mph35%29.99 "Hg10 mi
2:50 PM81 °FPassing clouds.9 mph37%30.01 "Hg10 mi
1:50 PM79 °FPassing clouds.7 mph34%30.03 "Hg10 mi
12:50 PM79 °FSunny.9 mph32%30.05 "Hg10 mi
11:50 AM75 °FSunny.10 mph36%30.08 "Hg10 mi
10:50 AM72 °FSunny.5 mph41%30.10 "Hg10 mi
9:50 AM70 °FSunny.6 mph46%30.09 "Hg10 mi
8:50 AM68 °FSunny.3 mph46%30.09 "Hg10 mi
7:50 AM63 °FSunny.3 mph73%30.08 "Hg10 mi
6:50 AM61 °FClear.No wind77%30.06 "Hg10 mi
5:50 AM61 °FClear.3 mph68%30.04 "Hg10 mi
Weather by CustomWeather, © 2016

See weather overviewHow to use our weather pages